Regional Weather Roundup
Issued by NWS Charleston, WV

Home | Current Version | Previous Version | Text Only | Print | Product List | Glossary Off
Versions: 1 2 3 4 5 6 7 8 9 10 11 12 13 14 15 16 17 18 19 20 21 22 23 24 25 26 27 28 29 30 31 32 33 34 35 36 37 38 39 40 41 42 43 44 45 46 47 48 49 50

000
ASUS41 KRLX 201210
RWRRLX
West Virginia Regional Weather Roundup
National Weather Service Charleston WV
800 AM EDT MON OCT 20 2014

Note: "fair" indicates few or no clouds below 12,000 feet with no
significant weather and/or obstructions to visibility.

WVZ003-201300-
Northern Panhandle of West Virginia

CITY           SKY/WX    TMP DP  RH WIND       PRES   REMARKS
WHEELING       CLOUDY    43  36  76 S6        30.01S
$$

WVZ009-201300-
Northwest West Virginia

CITY           SKY/WX    TMP DP  RH WIND       PRES   REMARKS
PARKERSBURG    CLOUDY    42  37  82 S5        30.07S
$$

WVZ006-201300-
Western West Virginia

CITY           SKY/WX    TMP DP  RH WIND       PRES   REMARKS
HUNTINGTON     MOCLDY    39  38  96 S3        30.05S
$$

WVZ015-201300-
West Central West Virginia

CITY           SKY/WX    TMP DP  RH WIND       PRES   REMARKS
CHARLESTON     PTCLDY    35  34  96 CALM      30.07S FOG
$$

WVZ022-031-201300-
North Central West Virginia

CITY           SKY/WX    TMP DP  RH WIND       PRES   REMARKS
CLARKSBURG     CLOUDY    38  36  92 CALM      30.06S
MORGANTOWN     CLOUDY    44  36  73 CALM      30.05F
$$

WVZ025-035-042-045-201300-
Southern West Virginia

CITY           SKY/WX    TMP DP  RH WIND       PRES   REMARKS
BECKLEY        PTCLDY    35  32  88 CALM      30.08R
LOGAN            N/A     39  39 100 CALM      30.07S FOG
BLUEFIELD      MOCLDY    43  33  68 CALM      30.09R
LEWISBURG      PTCLDY    33  32  96 CALM      30.10R
$$

WVZ047-201300-
Northern Mountains of West Virginia

CITY           SKY/WX    TMP DP  RH WIND       PRES   REMARKS
ELKINS         MOCLDY    31  31 100 CALM      30.08F FOG
$$

WVZ052-201300-
Eastern Panhandle of West Virginia

CITY           SKY/WX    TMP DP  RH WIND       PRES   REMARKS
MARTINSBURG    MOCLDY    36  33  89 CALM      30.09S
PETERSBURG     MOCLDY   N/A N/A N/A CALM      30.09S
$$


USA.gov is the U.S. government's official web portal to all federal, state and local government web resources and services.